• In Hungary
  • List of Countries
  • For 7 days
  • Water Temperature
  • Satellite Maps
  • Weather Map
  • News
  • Weather Widgets
  • user-avatar
    Login

    Hourly Weather Holhol

    Today, 26 September, Wednesday

    Time Temperature Precipitation Wind Pressure Humidity
    00:00 +28°C° 0 mm 4 mps 713 mmHg 75%
    01:00 +28°C° 0 mm 3 mps 713 mmHg 76%
    02:00 +28°C° 0 mm 3 mps 712 mmHg 76%
    03:00 +27°C° 0 mm 3 mps 712 mmHg 77%
    04:00 +27°C° 0 mm 3 mps 712 mmHg 78%
    05:00 +27°C° 0 mm 2 mps 712 mmHg 78%
    06:00 +27°C° 0 mm 2 mps 713 mmHg 78%
    07:00 +28°C° 0 mm 3 mps 713 mmHg 72%
    08:00 +29°C° 0 mm 3 mps 713 mmHg 67%
    09:00 +30°C° 0 mm 3 mps 714 mmHg 61%
    10:00 +31°C° 0 mm 3 mps 714 mmHg 55%
    11:00 +33°C° 0 mm 4 mps 713 mmHg 50%
    12:00 +35°C° 0 mm 4 mps 713 mmHg 44%
    13:00 +35°C° 0 mm 4 mps 713 mmHg 44%
    14:00 +35°C° 0 mm 4 mps 712 mmHg 45%
    15:00 +35°C° 0 mm 5 mps 711 mmHg 45%
    16:00 +35°C° 0 mm 4 mps 711 mmHg 48%
    17:00 +34°C° 0 mm 4 mps 711 mmHg 51%
    18:00 +33°C° 0 mm 4 mps 711 mmHg 54%
    19:00 +32°C° 0 mm 4 mps 711 mmHg 57%
    20:00 +32°C° 0 mm 4 mps 712 mmHg 60%
    21:00 +30°C° 0 mm 4 mps 712 mmHg 63%
    22:00 +29°C° 0 mm 3 mps 712 mmHg 66%
    23:00 +29°C° 0 mm 3 mps 712 mmHg 68%

    Tomorrow, 27 September, Thursday

    Time Temperature Precipitation Wind Pressure Humidity
    00:00 +28°C° 0 mm 3 mps 712 mmHg 71%
    01:00 +28°C° 0 mm 3 mps 712 mmHg 72%
    02:00 +28°C° 0 mm 2 mps 712 mmHg 72%
    03:00 +28°C° 0 mm 2 mps 711 mmHg 73%
    04:00 +28°C° 0 mm 2 mps 712 mmHg 73%
    05:00 +27°C° 0 mm 2 mps 712 mmHg 73%
    06:00 +27°C° 0 mm 2 mps 712 mmHg 74%
    07:00 +28°C° 0 mm 2 mps 713 mmHg 67%
    08:00 +29°C° 0 mm 2 mps 713 mmHg 60%
    09:00 +31°C° 0 mm 2 mps 714 mmHg 54%
    10:00 +32°C° 0 mm 2 mps 714 mmHg 47%
    11:00 +35°C° 0 mm 3 mps 713 mmHg 41%
    12:00 +36°C° 0 mm 3 mps 713 mmHg 35%
    13:00 +36°C° 0 mm 4 mps 712 mmHg 33%
    14:00 +37°C° 0 mm 4 mps 712 mmHg 32%
    15:00 +37°C° 0 mm 4 mps 711 mmHg 31%
    16:00 +36°C° 0 mm 4 mps 711 mmHg 34%
    17:00 +36°C° 0 mm 4 mps 711 mmHg 36%
    18:00 +35°C° 0 mm 4 mps 711 mmHg 39%
    19:00 +34°C° 0 mm 4 mps 711 mmHg 44%
    20:00 +33°C° 0 mm 3 mps 712 mmHg 48%
    21:00 +31°C° 0 mm 3 mps 712 mmHg 52%
    22:00 +30°C° 0 mm 3 mps 712 mmHg 56%
    23:00 +30°C° 0 mm 3 mps 712 mmHg 59%

    Day after tomorrow, 28 September, Friday

    Time Temperature Precipitation Wind Pressure Humidity
    00:00 +29°C° 0 mm 2 mps 712 mmHg 62%
    01:00 +29°C° 0 mm 2 mps 712 mmHg 63%
    02:00 +29°C° 0 mm 2 mps 711 mmHg 64%
    03:00 +28°C° 0 mm 1 mps 711 mmHg 65%
    04:00 +28°C° 0 mm 2 mps 711 mmHg 66%
    05:00 +28°C° 0 mm 2 mps 712 mmHg 67%
    06:00 +28°C° 0 mm 2 mps 712 mmHg 68%
    07:00 +29°C° 0 mm 2 mps 712 mmHg 62%
    08:00 +30°C° 0 mm 2 mps 713 mmHg 55%
    09:00 +31°C° 0 mm 2 mps 714 mmHg 49%
    10:00 +34°C° 0 mm 3 mps 713 mmHg 42%
    11:00 +35°C° 0 mm 3 mps 713 mmHg 34%
    12:00 +37°C° 0 mm 3 mps 713 mmHg 27%
    13:00 +37°C° 0 mm 3 mps 712 mmHg 25%
    14:00 +38°C° 0 mm 4 mps 711 mmHg 24%
    15:00 +40°C° 0 mm 4 mps 711 mmHg 22%
    16:00 +38°C° 0 mm 4 mps 711 mmHg 23%
    17:00 +37°C° 0 mm 3 mps 711 mmHg 25%
    18:00 +37°C° 0 mm 3 mps 711 mmHg 26%
    19:00 +36°C° 0 mm 3 mps 711 mmHg 29%
    20:00 +35°C° 0 mm 3 mps 711 mmHg 32%
    21:00 +34°C° 0 mm 3 mps 712 mmHg 35%
    22:00 +32°C° 0 mm 2 mps 712 mmHg 39%
    23:00 +31°C° 0 mm 2 mps 712 mmHg 42%

    29 September, Saturday

    Time Temperature Precipitation Wind Pressure Humidity
    00:00 +31°C° 0 mm 2 mps 711 mmHg 45%
    01:00 +30°C° 0 mm 2 mps 711 mmHg 47%
    02:00 +30°C° 0 mm 2 mps 711 mmHg 49%
    03:00 +29°C° 0 mm 2 mps 710 mmHg 51%
    04:00 +29°C° 0 mm 1 mps 711 mmHg 53%
    05:00 +29°C° 0 mm 1 mps 711 mmHg 55%
    06:00 +28°C° 0 mm 1 mps 712 mmHg 56%
    07:00 +29°C° 0 mm 2 mps 712 mmHg 50%
    08:00 +31°C° 0 mm 2 mps 713 mmHg 43%
    09:00 +32°C° 0 mm 2 mps 714 mmHg 37%
    10:00 +34°C° 0 mm 3 mps 713 mmHg 33%
    11:00 +35°C° 0 mm 3 mps 713 mmHg 30%
    12:00 +37°C° 0 mm 4 mps 712 mmHg 26%
    13:00 +37°C° 0 mm 4 mps 712 mmHg 27%
    14:00 +37°C° 0 mm 5 mps 711 mmHg 29%
    15:00 +37°C° 0 mm 5 mps 710 mmHg 30%
    16:00 +36°C° 0 mm 5 mps 710 mmHg 36%
    17:00 +35°C° 0 mm 4 mps 710 mmHg 41%
    18:00 +34°C° 0 mm 4 mps 711 mmHg 47%
    19:00 +33°C° 0 mm 4 mps 711 mmHg 50%
    20:00 +32°C° 0 mm 4 mps 712 mmHg 54%
    21:00 +31°C° 0 mm 3 mps 712 mmHg 57%
    22:00 +30°C° 0 mm 4 mps 712 mmHg 63%
    23:00 +29°C° 0 mm 4 mps 712 mmHg 68%

    30 September, Sunday

    Time Temperature Precipitation Wind Pressure Humidity
    00:00 +29°C° 0 mm 4 mps 711 mmHg 74%
    01:00 +29°C° 0 mm 4 mps 711 mmHg 75%
    02:00 +28°C° 0 mm 3 mps 711 mmHg 75%
    03:00 +28°C° 0 mm 3 mps 711 mmHg 76%
    04:00 +28°C° 0 mm 3 mps 711 mmHg 77%
    05:00 +28°C° 0 mm 3 mps 712 mmHg 79%
    06:00 +28°C° 0 mm 3 mps 712 mmHg 80%
    07:00 +29°C° 0 mm 3 mps 713 mmHg 73%
    08:00 +30°C° 0 mm 4 mps 714 mmHg 66%
    09:00 +32°C° 0 mm 4 mps 714 mmHg 59%
    10:00 +33°C° 0 mm 5 mps 714 mmHg 52%
    11:00 +34°C° 0 mm 5 mps 713 mmHg 45%
    12:00 +36°C° 0 mm 6 mps 713 mmHg 38%
    13:00 +36°C° 0 mm 6 mps 712 mmHg 38%
    14:00 +36°C° 0 mm 6 mps 711 mmHg 38%
    15:00 +36°C° 0 mm 6 mps 711 mmHg 39%
    16:00 +35°C° 0 mm 5 mps 711 mmHg 42%
    17:00 +34°C° 0 mm 4 mps 711 mmHg 45%
    18:00 +33°C° 0 mm 3 mps 711 mmHg 48%
    19:00 +31°C° 0 mm 3 mps 712 mmHg 51%
    20:00 +31°C° 0 mm 3 mps 712 mmHg 55%
    21:00 +30°C° 0 mm 3 mps 713 mmHg 58%
    22:00 +30°C° 0 mm 3 mps 712 mmHg 62%
    23:00 +29°C° 0 mm 3 mps 712 mmHg 66%

    1 October, Monday

    Time Temperature Precipitation Wind Pressure Humidity
    00:00 +29°C° 0 mm 3 mps 712 mmHg 71%
    01:00 +28°C° 0 mm 3 mps 712 mmHg 72%
    02:00 +28°C° 0 mm 2 mps 711 mmHg 74%
    03:00 +28°C° 0 mm 2 mps 711 mmHg 76%
    04:00 +28°C° 0 mm 2 mps 712 mmHg 77%
    05:00 +28°C° 0 mm 2 mps 712 mmHg 77%
    06:00 +28°C° 0 mm 2 mps 712 mmHg 78%
    07:00 +29°C° 0 mm 3 mps 713 mmHg 72%
    08:00 +30°C° 0 mm 3 mps 713 mmHg 66%
    09:00 +32°C° 0 mm 4 mps 714 mmHg 61%
    10:00 +33°C° 0 mm 4 mps 713 mmHg 55%
    11:00 +34°C° 0 mm 5 mps 713 mmHg 49%
    12:00 +35°C° 0 mm 5 mps 712 mmHg 44%
    13:00 +35°C° 0 mm 5 mps 712 mmHg 43%
    14:00 +36°C° 0 mm 5 mps 711 mmHg 42%
    15:00 +36°C° 0 mm 5 mps 711 mmHg 40%
    16:00 +35°C° 0 mm 5 mps 711 mmHg 43%
    17:00 +34°C° 0 mm 4 mps 711 mmHg 45%
    18:00 +34°C° 0 mm 3 mps 711 mmHg 48%
    19:00 +33°C° 0 mm 3 mps 711 mmHg 51%
    20:00 +31°C° 0 mm 3 mps 712 mmHg 55%
    21:00 +30°C° 0 mm 3 mps 712 mmHg 59%
    22:00 +30°C° 0 mm 3 mps 712 mmHg 61%
    23:00 +30°C° 0 mm 3 mps 712 mmHg 64%
    Show more